TimeCST,TemperatureF,Dew PointF,Humidity,Sea Level PressureIn,VisibilityMPH,Wind Direction,Wind SpeedMPH,Gust SpeedMPH,PrecipitationIn,Events,Conditions,WindDirDegrees,DateUTC
12:53 AM,34.0,32.0,92,30.21,10.0,Calm,Calm,-,N/A,,Clear,0,2011-01-27 06:53:00
1:53 AM,34.0,32.0,92,30.20,10.0,Calm,Calm,-,N/A,,Clear,0,2011-01-27 07:53:00
2:53 AM,34.0,32.0,92,30.19,10.0,Calm,Calm,-,N/A,,Clear,0,2011-01-27 08:53:00
3:53 AM,33.1,30.0,89,30.19,10.0,Calm,Calm,-,N/A,,Clear,0,2011-01-27 09:53:00
4:53 AM,32.0,30.9,96,30.18,10.0,Calm,Calm,-,N/A,,Clear,0,2011-01-27 10:53:00
5:53 AM,33.1,30.0,89,30.18,10.0,Calm,Calm,-,N/A,,Clear,0,2011-01-27 11:53:00
6:53 AM,33.1,30.0,89,30.19,10.0,West,3.5,-,N/A,,Clear,270,2011-01-27 12:53:00
7:53 AM,36.0,30.0,79,30.21,10.0,Calm,Calm,-,N/A,,Clear,0,2011-01-27 13:53:00
8:53 AM,42.1,34.0,73,30.22,10.0,Calm,Calm,-,N/A,,Clear,0,2011-01-27 14:53:00
9:53 AM,50.0,35.1,57,30.22,10.0,West,4.6,-,N/A,,Clear,260,2011-01-27 15:53:00
10:53 AM,54.0,33.1,45,30.21,10.0,West,6.9,-,N/A,,Clear,260,2011-01-27 16:53:00
11:53 AM,57.9,33.1,39,30.19,10.0,WNW,9.2,-,N/A,,Clear,300,2011-01-27 17:53:00
12:53 PM,60.1,30.9,33,30.15,10.0,West,11.5,18.4,N/A,,Clear,280,2011-01-27 18:53:00
1:53 PM,62.1,32.0,32,30.12,10.0,WNW,12.7,-,N/A,,Clear,300,2011-01-27 19:53:00
2:53 PM,62.1,30.9,31,30.10,10.0,NW,8.1,16.1,N/A,,Clear,310,2011-01-27 20:53:00
3:53 PM,62.1,30.0,30,30.09,10.0,West,9.2,-,N/A,,Clear,280,2011-01-27 21:53:00
4:53 PM,60.1,30.9,33,30.09,10.0,West,8.1,-,N/A,,Clear,270,2011-01-27 22:53:00
5:53 PM,54.0,36.0,51,30.09,10.0,WSW,4.6,-,N/A,,Clear,250,2011-01-27 23:53:00
6:53 PM,52.0,34.0,50,30.10,10.0,Calm,Calm,-,N/A,,Clear,0,2011-01-28 00:53:00
7:53 PM,48.0,35.1,61,30.10,10.0,Calm,Calm,-,N/A,,Clear,0,2011-01-28 01:53:00
8:53 PM,46.0,34.0,63,30.10,10.0,Calm,Calm,-,N/A,,Clear,0,2011-01-28 02:53:00
9:53 PM,44.1,35.1,71,30.11,10.0,Calm,Calm,-,N/A,,Clear,0,2011-01-28 03:53:00
10:53 PM,44.6,33.8,66,30.09,10.0,Calm,Calm,-,N/A,,Clear,0,2011-01-28 04:53:00
11:53 PM,43.0,35.1,74,30.10,10.0,Calm,Calm,-,N/A,,Clear,0,2011-01-28 05:53:00